When you browse on this site, cookies collect data to enhance your experience and personalize the content and advertising you see.
Visit our Privacy Policy to learn more. By continuing to use the site, you agree to this use of cookies and data.
  • In Lithuania
  • List of Countries
  • For 7 days
  • Water Temperature
  • Satellite Maps
  • Weather Map
  • Weather Widgets
  • user-avatar
    Login

    Hourly Weather Ali Bayramli

    Today, 17 July, Wednesday

    Time Temperature Precipitation Wind Pressure Humidity
    00:00 +28°C° 0 mm 3 mps 751 mmHg 65%
    01:00 +28°C° 0 mm 3 mps 751 mmHg 65%
    02:00 +27°C° 0 mm 3 mps 751 mmHg 66%
    03:00 +27°C° 0 mm 2 mps 751 mmHg 66%
    04:00 +27°C° 0 mm 2 mps 752 mmHg 65%
    05:00 +28°C° 0 mm 3 mps 752 mmHg 64%
    06:00 +28°C° 0 mm 3 mps 753 mmHg 62%
    07:00 +30°C° 0 mm 3 mps 753 mmHg 57%
    08:00 +31°C° 0 mm 3 mps 753 mmHg 51%
    09:00 +34°C° 0 mm 2 mps 753 mmHg 45%
    10:00 +35°C° 0 mm 3 mps 753 mmHg 41%
    11:00 +36°C° 0 mm 3 mps 753 mmHg 37%
    12:00 +38°C° 0 mm 3 mps 752 mmHg 33%
    13:00 +39°C° 0 mm 5 mps 752 mmHg 33%
    14:00 +38°C° 0 mm 7 mps 752 mmHg 33%
    15:00 +38°C° 0 mm 9 mps 751 mmHg 33%
    16:00 +37°C° 0 mm 9 mps 752 mmHg 36%
    17:00 +34°C° 0 mm 9 mps 752 mmHg 40%
    18:00 +33°C° 0 mm 9 mps 752 mmHg 44%
    19:00 +32°C° 0 mm 8 mps 752 mmHg 47%
    20:00 +30°C° 0 mm 7 mps 752 mmHg 51%
    21:00 +29°C° 0 mm 6 mps 753 mmHg 55%
    22:00 +28°C° 0 mm 5 mps 752 mmHg 58%
    23:00 +28°C° 0 mm 4 mps 752 mmHg 61%

    Tomorrow, 18 July, Thursday

    Time Temperature Precipitation Wind Pressure Humidity
    00:00 +27°C° 0 mm 3 mps 752 mmHg 64%
    01:00 +27°C° 0 mm 3 mps 752 mmHg 66%
    02:00 +26°C° 0 mm 2 mps 752 mmHg 67%
    03:00 +26°C° 0 mm 1 mps 752 mmHg 69%
    04:00 +26°C° 0 mm 1 mps 752 mmHg 68%
    05:00 +27°C° 0 mm 1 mps 752 mmHg 66%
    06:00 +27°C° 0 mm 2 mps 752 mmHg 65%
    07:00 +28°C° 0 mm 1 mps 753 mmHg 59%
    08:00 +30°C° 0 mm 1 mps 753 mmHg 53%
    09:00 +31°C° 0 mm 1 mps 753 mmHg 47%
    10:00 +33°C° 0 mm 1 mps 752 mmHg 42%
    11:00 +34°C° 0 mm 1 mps 752 mmHg 38%
    12:00 +37°C° 0 mm 2 mps 752 mmHg 34%
    13:00 +37°C° 0 mm 3 mps 751 mmHg 33%
    14:00 +37°C° 0 mm 4 mps 751 mmHg 32%
    15:00 +38°C° 0 mm 6 mps 750 mmHg 31%
    16:00 +36°C° 0 mm 6 mps 751 mmHg 34%
    17:00 +35°C° 0 mm 6 mps 751 mmHg 37%
    18:00 +34°C° 0 mm 6 mps 751 mmHg 39%
    19:00 +32°C° 0 mm 5 mps 751 mmHg 45%
    20:00 +30°C° 0 mm 4 mps 751 mmHg 50%
    21:00 +29°C° 0 mm 3 mps 752 mmHg 55%
    22:00 +28°C° 0 mm 3 mps 752 mmHg 58%
    23:00 +28°C° 0 mm 2 mps 752 mmHg 60%

    Day after tomorrow, 19 July, Friday

    Time Temperature Precipitation Wind Pressure Humidity
    00:00 +27°C° 0 mm 2 mps 752 mmHg 62%
    01:00 +27°C° 0 mm 1 mps 752 mmHg 63%
    02:00 +27°C° 0 mm 1 mps 752 mmHg 64%
    03:00 +26°C° 0 mm 1 mps 752 mmHg 64%
    04:00 +27°C° 0 mm 1 mps 752 mmHg 63%
    05:00 +27°C° 0 mm 2 mps 753 mmHg 62%
    06:00 +28°C° 0 mm 2 mps 753 mmHg 60%
    07:00 +29°C° 0 mm 2 mps 753 mmHg 54%
    08:00 +31°C° 0 mm 2 mps 754 mmHg 48%
    09:00 +32°C° 0 mm 2 mps 754 mmHg 43%
    10:00 +35°C° 0 mm 2 mps 754 mmHg 39%
    11:00 +36°C° 0 mm 2 mps 754 mmHg 35%
    12:00 +38°C° 0 mm 2 mps 754 mmHg 31%
    13:00 +38°C° 0 mm 3 mps 753 mmHg 29%
    14:00 +40°C° 0 mm 5 mps 753 mmHg 27%
    15:00 +40°C° 0 mm 7 mps 753 mmHg 25%
    16:00 +39°C° 0 mm 7 mps 753 mmHg 27%
    17:00 +38°C° 0 mm 8 mps 753 mmHg 28%
    18:00 +37°C° 0 mm 8 mps 754 mmHg 30%
    19:00 +35°C° 0 mm 8 mps 754 mmHg 34%
    20:00 +33°C° 0 mm 7 mps 755 mmHg 38%
    21:00 +32°C° 0 mm 6 mps 755 mmHg 42%
    22:00 +30°C° 0 mm 5 mps 755 mmHg 44%
    23:00 +30°C° 0 mm 4 mps 756 mmHg 45%

    20 July, Saturday

    Time Temperature Precipitation Wind Pressure Humidity
    00:00 +29°C° 0 mm 3 mps 756 mmHg 47%
    01:00 +29°C° 0 mm 3 mps 756 mmHg 48%
    02:00 +28°C° 0 mm 2 mps 756 mmHg 50%
    03:00 +28°C° 0 mm 2 mps 756 mmHg 52%
    04:00 +28°C° 0 mm 2 mps 756 mmHg 51%
    05:00 +29°C° 0 mm 2 mps 757 mmHg 49%
    06:00 +29°C° 0 mm 2 mps 757 mmHg 48%
    07:00 +31°C° 0 mm 2 mps 757 mmHg 42%
    08:00 +34°C° 0 mm 2 mps 758 mmHg 35%
    09:00 +36°C° 0 mm 2 mps 758 mmHg 29%
    10:00 +38°C° 0 mm 3 mps 758 mmHg 26%
    11:00 +40°C° 0 mm 5 mps 758 mmHg 24%
    12:00 +42°C° 0 mm 6 mps 758 mmHg 21%
    13:00 +41°C° 0 mm 7 mps 758 mmHg 21%
    14:00 +42°C° 0 mm 9 mps 758 mmHg 22%
    15:00 +42°C° 0 mm 10 mps 757 mmHg 22%
    16:00 +40°C° 0 mm 10 mps 757 mmHg 24%
    17:00 +38°C° 0 mm 10 mps 758 mmHg 26%
    18:00 +37°C° 0 mm 10 mps 758 mmHg 28%
    19:00 +35°C° 0 mm 9 mps 758 mmHg 30%
    20:00 +34°C° 0 mm 8 mps 759 mmHg 32%
    21:00 +33°C° 0 mm 7 mps 759 mmHg 35%
    22:00 +32°C° 0 mm 6 mps 759 mmHg 37%
    23:00 +30°C° 0 mm 5 mps 759 mmHg 40%

    21 July, Sunday

    Time Temperature Precipitation Wind Pressure Humidity
    00:00 +29°C° 0 mm 4 mps 759 mmHg 43%
    01:00 +29°C° 0 mm 3 mps 759 mmHg 44%
    02:00 +29°C° 0 mm 3 mps 758 mmHg 45%
    03:00 +28°C° 0 mm 2 mps 758 mmHg 46%
    04:00 +29°C° 0 mm 2 mps 758 mmHg 45%
    05:00 +29°C° 0 mm 2 mps 758 mmHg 44%
    06:00 +30°C° 0 mm 2 mps 759 mmHg 43%
    07:00 +31°C° 0 mm 3 mps 758 mmHg 37%
    08:00 +34°C° 0 mm 3 mps 758 mmHg 32%
    09:00 +36°C° 0 mm 4 mps 758 mmHg 27%
    10:00 +37°C° 0 mm 4 mps 758 mmHg 25%
    11:00 +39°C° 0 mm 5 mps 758 mmHg 24%
    12:00 +40°C° 0 mm 5 mps 757 mmHg 22%
    13:00 +41°C° 0 mm 5 mps 757 mmHg 23%
    14:00 +41°C° 0 mm 6 mps 756 mmHg 23%
    15:00 +41°C° 0 mm 6 mps 755 mmHg 23%
    16:00 +39°C° 0 mm 6 mps 755 mmHg 26%
    17:00 +38°C° 0 mm 6 mps 755 mmHg 28%
    18:00 +35°C° 0 mm 6 mps 755 mmHg 31%
    19:00 +34°C° 0 mm 5 mps 755 mmHg 36%
    20:00 +32°C° 0 mm 4 mps 756 mmHg 42%
    21:00 +29°C° 0 mm 3 mps 756 mmHg 47%
    22:00 +29°C° 0 mm 3 mps 756 mmHg 47%
    23:00 +29°C° 0 mm 2 mps 755 mmHg 47%

    22 July, Monday

    Time Temperature Precipitation Wind Pressure Humidity
    00:00 +28°C° 0 mm 2 mps 755 mmHg 47%
    01:00 +28°C° 0 mm 2 mps 755 mmHg 48%
    02:00 +27°C° 0 mm 1 mps 755 mmHg 48%
    03:00 +27°C° 0 mm 1 mps 754 mmHg 49%
    04:00 +28°C° 0 mm 1 mps 754 mmHg 48%
    05:00 +28°C° 0 mm 1 mps 754 mmHg 46%
    06:00 +29°C° 0 mm 1 mps 754 mmHg 45%
    07:00 +31°C° 0 mm 1 mps 754 mmHg 40%
    08:00 +32°C° 0 mm 1 mps 754 mmHg 35%
    09:00 +34°C° 0 mm 1 mps 754 mmHg 31%
    10:00 +37°C° 0 mm 2 mps 754 mmHg 27%
    11:00 +39°C° 0 mm 3 mps 754 mmHg 24%
    12:00 +40°C° 0 mm 3 mps 754 mmHg 21%
    13:00 +42°C° 0 mm 5 mps 754 mmHg 21%
    14:00 +43°C° 0 mm 7 mps 753 mmHg 21%
    15:00 +44°C° 0 mm 8 mps 753 mmHg 21%
    16:00 +43°C° 0 mm 9 mps 753 mmHg 22%
    17:00 +42°C° 0 mm 9 mps 753 mmHg 24%
    18:00 +40°C° 0 mm 9 mps 753 mmHg 26%
    19:00 +38°C° 0 mm 10 mps 754 mmHg 28%
    20:00 +37°C° 0 mm 10 mps 754 mmHg 31%
    21:00 +36°C° 0 mm 10 mps 755 mmHg 33%
    22:00 +34°C° 0 mm 9 mps 755 mmHg 34%
    23:00 +33°C° 0 mm 8 mps 755 mmHg 34%
    Show more